Previsão horária em Brasília

Hoje, 24 Julho, Sábado

Tempo Temperatura Precipitação Vento Pressão Humidade
00:00 +16°C° 0 mm 3 m/s 669 mmHg 49%
01:00 +16°C° 0 mm 3 m/s 669 mmHg 50%
02:00 +14°C° 0 mm 3 m/s 668 mmHg 52%
03:00 +15°C° 0 mm 2 m/s 668 mmHg 53%
04:00 +13°C° 0 mm 3 m/s 668 mmHg 56%
05:00 +12°C° 0 mm 3 m/s 668 mmHg 59%
06:00 +12°C° 0 mm 3 m/s 668 mmHg 61%
07:00 +13°C° 0 mm 4 m/s 669 mmHg 58%
08:00 +15°C° 0 mm 4 m/s 670 mmHg 54%
09:00 +16°C° 0 mm 5 m/s 671 mmHg 51%
10:00 +20°C° 0 mm 5 m/s 671 mmHg 45%
11:00 +22°C° 0 mm 5 m/s 671 mmHg 38%
12:00 +25°C° 0 mm 4 m/s 671 mmHg 32%
13:00 +25°C° 0 mm 4 m/s 670 mmHg 29%
14:00 +26°C° 0 mm 4 m/s 670 mmHg 27%
15:00 +27°C° 0 mm 4 m/s 669 mmHg 24%
16:00 +25°C° 0 mm 3 m/s 669 mmHg 26%
17:00 +22°C° 0 mm 3 m/s 668 mmHg 28%
18:00 +20°C° 0 mm 2 m/s 668 mmHg 31%
19:00 +19°C° 0 mm 2 m/s 668 mmHg 32%
20:00 +18°C° 0 mm 2 m/s 668 mmHg 33%
21:00 +17°C° 0 mm 2 m/s 669 mmHg 35%
22:00 +17°C° 0 mm 2 m/s 668 mmHg 36%
23:00 +16°C° 0 mm 2 m/s 668 mmHg 38%

Amanhã, 25 Julho, Domingo

Tempo Temperatura Precipitação Vento Pressão Humidade
00:00 +16°C° 0 mm 2 m/s 668 mmHg 39%
01:00 +16°C° 0 mm 2 m/s 668 mmHg 43%
02:00 +15°C° 0 mm 2 m/s 667 mmHg 46%
03:00 +15°C° 0 mm 2 m/s 667 mmHg 50%
04:00 +15°C° 0 mm 2 m/s 667 mmHg 52%
05:00 +13°C° 0 mm 3 m/s 667 mmHg 54%
06:00 +13°C° 0 mm 3 m/s 667 mmHg 56%
07:00 +14°C° 0 mm 4 m/s 668 mmHg 54%
08:00 +17°C° 0 mm 4 m/s 669 mmHg 52%
09:00 +17°C° 0 mm 5 m/s 669 mmHg 49%
10:00 +20°C° 0 mm 5 m/s 670 mmHg 43%
11:00 +22°C° 0 mm 4 m/s 670 mmHg 37%
12:00 +25°C° 0 mm 4 m/s 670 mmHg 31%
13:00 +26°C° 0 mm 3 m/s 669 mmHg 29%
14:00 +27°C° 0 mm 3 m/s 669 mmHg 27%
15:00 +27°C° 0 mm 3 m/s 668 mmHg 25%
16:00 +26°C° 0 mm 2 m/s 668 mmHg 28%
17:00 +24°C° 0 mm 2 m/s 668 mmHg 31%
18:00 +21°C° 0 mm 2 m/s 667 mmHg 35%
19:00 +20°C° 0 mm 2 m/s 668 mmHg 37%
20:00 +19°C° 0 mm 2 m/s 668 mmHg 39%
21:00 +18°C° 0 mm 2 m/s 668 mmHg 41%
22:00 +17°C° 0 mm 2 m/s 668 mmHg 43%
23:00 +17°C° 0 mm 2 m/s 668 mmHg 44%

Depois de amanhã, 26 Julho, Segunda-feira

Tempo Temperatura Precipitação Vento Pressão Humidade
00:00 +16°C° 0 mm 2 m/s 668 mmHg 45%
01:00 +16°C° 0 mm 2 m/s 667 mmHg 46%
02:00 +16°C° 0 mm 2 m/s 667 mmHg 46%
03:00 +16°C° 0 mm 2 m/s 667 mmHg 46%
04:00 +15°C° 0 mm 2 m/s 667 mmHg 47%
05:00 +15°C° 0 mm 2 m/s 667 mmHg 49%
06:00 +14°C° 0 mm 2 m/s 667 mmHg 50%
07:00 +16°C° 0 mm 3 m/s 668 mmHg 47%
08:00 +18°C° 0 mm 4 m/s 669 mmHg 43%
09:00 +20°C° 0 mm 5 m/s 670 mmHg 39%
10:00 +22°C° 0 mm 4 m/s 670 mmHg 35%
11:00 +25°C° 0 mm 4 m/s 670 mmHg 30%
12:00 +27°C° 0 mm 3 m/s 670 mmHg 25%
13:00 +27°C° 0 mm 3 m/s 669 mmHg 23%
14:00 +28°C° 0 mm 2 m/s 669 mmHg 21%
15:00 +28°C° 0 mm 2 m/s 668 mmHg 19%
16:00 +26°C° 0 mm 2 m/s 667 mmHg 22%
17:00 +25°C° 0 mm 2 m/s 667 mmHg 25%
18:00 +23°C° 0 mm 2 m/s 667 mmHg 28%
19:00 +21°C° 0 mm 2 m/s 667 mmHg 30%
20:00 +19°C° 0 mm 2 m/s 667 mmHg 33%
21:00 +19°C° 0 mm 1 m/s 668 mmHg 35%
22:00 +19°C° 0 mm 1 m/s 668 mmHg 36%
23:00 +19°C° 0 mm 1 m/s 668 mmHg 37%

27 Julho, Terça-feira

Tempo Temperatura Precipitação Vento Pressão Humidade
00:00 +18°C° 0 mm 1 m/s 668 mmHg 37%
01:00 +18°C° 0 mm 1 m/s 667 mmHg 39%
02:00 +17°C° 0 mm 2 m/s 667 mmHg 41%
03:00 +16°C° 0 mm 2 m/s 667 mmHg 42%
04:00 +16°C° 0 mm 2 m/s 667 mmHg 43%
05:00 +16°C° 0 mm 2 m/s 667 mmHg 45%
06:00 +15°C° 0 mm 2 m/s 667 mmHg 46%
07:00 +18°C° 0 mm 2 m/s 668 mmHg 42%
08:00 +20°C° 0 mm 3 m/s 668 mmHg 37%
09:00 +22°C° 0 mm 3 m/s 669 mmHg 32%
10:00 +25°C° 0 mm 2 m/s 669 mmHg 28%
11:00 +27°C° 0 mm 2 m/s 669 mmHg 24%
12:00 +29°C° 0 mm 1 m/s 669 mmHg 20%
13:00 +30°C° 0 mm 1 m/s 669 mmHg 18%
14:00 +30°C° 0 mm 1 m/s 668 mmHg 17%
15:00 +29°C° 0 mm 0 m/s 667 mmHg 16%
16:00 +27°C° 0 mm 0 m/s 667 mmHg 18%
17:00 +25°C° 0 mm 0 m/s 666 mmHg 21%
18:00 +23°C° 0 mm 0 m/s 666 mmHg 23%
19:00 +22°C° 0 mm 0 m/s 666 mmHg 25%
20:00 +20°C° 0 mm 0 m/s 666 mmHg 27%
21:00 +19°C° 0 mm 0 m/s 666 mmHg 29%
22:00 +19°C° 0 mm 0 m/s 666 mmHg 31%
23:00 +21°C° 0 mm 1 m/s 666 mmHg 32%

28 Julho, Quarta-feira

Tempo Temperatura Precipitação Vento Pressão Humidade
00:00 +20°C° 0 mm 1 m/s 666 mmHg 33%
01:00 +20°C° 0 mm 1 m/s 666 mmHg 34%
02:00 +20°C° 0 mm 1 m/s 666 mmHg 35%
03:00 +19°C° 0 mm 1 m/s 665 mmHg 37%
04:00 +19°C° 0 mm 1 m/s 665 mmHg 37%
05:00 +19°C° 0 mm 1 m/s 665 mmHg 38%
06:00 +19°C° 0 mm 1 m/s 665 mmHg 39%
07:00 +20°C° 0 mm 2 m/s 666 mmHg 34%
08:00 +24°C° 0 mm 2 m/s 667 mmHg 30%
09:00 +26°C° 0 mm 2 m/s 668 mmHg 25%
10:00 +28°C° 0 mm 2 m/s 668 mmHg 23%
11:00 +30°C° 0 mm 2 m/s 668 mmHg 20%
12:00 +31°C° 0 mm 2 m/s 668 mmHg 17%
13:00 +32°C° 0 mm 2 m/s 667 mmHg 17%
14:00 +32°C° 0 mm 2 m/s 667 mmHg 16%
15:00 +32°C° 0 mm 2 m/s 666 mmHg 16%
16:00 +30°C° 0 mm 2 m/s 666 mmHg 18%
17:00 +28°C° 0 mm 2 m/s 666 mmHg 20%
18:00 +27°C° 0 mm 1 m/s 665 mmHg 23%
19:00 +26°C° 0 mm 1 m/s 666 mmHg 24%
20:00 +25°C° 0 mm 1 m/s 666 mmHg 25%
21:00 +24°C° 0 mm 1 m/s 666 mmHg 26%
22:00 +23°C° 0 mm 1 m/s 666 mmHg 28%
23:00 +22°C° 0 mm 1 m/s 666 mmHg 29%

29 Julho, Quinta-feira

Tempo Temperatura Precipitação Vento Pressão Humidade
00:00 +21°C° 0 mm 1 m/s 666 mmHg 31%
01:00 +21°C° 0 mm 1 m/s 666 mmHg 33%
02:00 +20°C° 0 mm 1 m/s 665 mmHg 36%
03:00 +20°C° 0 mm 1 m/s 665 mmHg 38%
04:00 +18°C° 0 mm 2 m/s 665 mmHg 46%
05:00 +17°C° 0 mm 2 m/s 665 mmHg 54%
06:00 +16°C° 0 mm 3 m/s 666 mmHg 62%
07:00 +18°C° 0 mm 3 m/s 666 mmHg 61%
08:00 +19°C° 0 mm 3 m/s 667 mmHg 60%
09:00 +20°C° 0 mm 3 m/s 668 mmHg 59%
10:00 +22°C° 0 mm 3 m/s 668 mmHg 51%
11:00 +26°C° 0 mm 3 m/s 668 mmHg 43%
12:00 +28°C° 0 mm 3 m/s 669 mmHg 34%
13:00 +29°C° 0 mm 3 m/s 668 mmHg 31%
14:00 +30°C° 0 mm 3 m/s 668 mmHg 28%
15:00 +30°C° 0 mm 3 m/s 667 mmHg 25%
16:00 +29°C° 0 mm 3 m/s 667 mmHg 29%
17:00 +27°C° 0 mm 3 m/s 667 mmHg 33%
18:00 +25°C° 0 mm 3 m/s 667 mmHg 36%
19:00 +23°C° 0 mm 4 m/s 667 mmHg 40%
20:00 +22°C° 0 mm 4 m/s 667 mmHg 43%
21:00 +20°C° 0 mm 4 m/s 668 mmHg 46%
22:00 +19°C° 0 mm 4 m/s 667 mmHg 49%
23:00 +18°C° 0 mm 4 m/s 667 mmHg 52%
Mostrar mais